This is the latest recevied weather packets stored in our database for station/object K6GMW. If no packets are shown the sender has not sent any weather packets the latest 10 day(s).
| Time | Temp. | Humidity | Pressure | Rain* | Wind** | Luminosity | Snow |
|---|---|---|---|---|---|---|---|
| 1777467656 | 20° C | 96% | 1014.6 hPa | 0 mm | - | 18 W/m² | - |
| 1777467352 | 20° C | 96% | 1014.5 hPa | 0 mm | - | 17 W/m² | - |
| 1777467048 | 20.56° C | 96% | 1014.8 hPa | 0 mm | - | 18 W/m² | - |
| 1777466746 | 20.56° C | 95% | 1014.3 hPa | 0 mm | - | 15 W/m² | - |
| 1777466443 | 20.56° C | 95% | 1014.2 hPa | 0 mm | - | 18 W/m² | - |
| 1777466139 | 20.56° C | 96% | 1014.3 hPa | 0 mm | - | 14 W/m² | - |
| 1777465836 | 20.56° C | 96% | 1014.1 hPa | 0 mm | - | 16 W/m² | - |
| 1777465531 | 20.56° C | 96% | 1014.3 hPa | 0 mm | - | 10 W/m² | - |
| 1777465226 | 20.56° C | 96% | 1014 hPa | 0 mm | - | 8 W/m² | - |
| 1777464921 | 20.56° C | 96% | 1014 hPa | 0 mm | - | 6 W/m² | - |
| 1777464616 | 21.11° C | 96% | 1014.1 hPa | 0 mm | - | 6 W/m² | - |
| 1777464313 | 21.11° C | 96% | 1014 hPa | 0 mm | - | 5 W/m² | - |
| 1777464009 | 21.11° C | 96% | 1014 hPa | 0 mm | - | 5 W/m² | - |
| 1777463703 | 21.11° C | 96% | 1014.1 hPa | 0 mm | - | 3 W/m² | - |
| 1777463398 | 21.11° C | 96% | 1013.9 hPa | 0 mm | - | 3 W/m² | - |
| 1777463095 | 21.11° C | 96% | 1014.1 hPa | 0 mm | - | 2 W/m² | - |
| 1777462790 | 21.11° C | 96% | 1013.9 hPa | 0 mm | - | 1 W/m² | - |
| 1777462486 | 21.11° C | 95% | 1013.9 hPa | 0 mm | - | 0 W/m² | - |
| 1777462183 | 21.11° C | 95% | 1013.9 hPa | 0 mm | - | 0 W/m² | - |
| 1777461879 | 21.11° C | 95% | 1013.9 hPa | 0 mm | - | 0 W/m² | - |
| 1777461576 | 21.11° C | 95% | 1013.8 hPa | 0 mm | - | 0 W/m² | - |
| 1777461271 | 21.11° C | 95% | 1013.6 hPa | 0 mm | - | 0 W/m² | - |
| 1777460967 | 21.11° C | 95% | 1013.4 hPa | 0 mm | - | 0 W/m² | - |
| 1777460663 | 21.11° C | 95% | 1013.4 hPa | 0 mm | - | 0 W/m² | - |
| 1777460359 | 21.11° C | 95% | 1013.4 hPa | 0 mm | - | 0 W/m² | - |
* Rain latest hour (hover to see other rain measurements)
** Current wind speed in m/s (hover to see current wind gust speed)